Probability
0 0 0 0 0 0 0 0 0 0 0 0 0 0 0 0 0 0 0 0 0 0 0 0 0 0 0 0 0 0 0 0 0 0 0 0 0 0 0 0 0 0 0
0 0 0 0 0 0 0 0 0 0 0 0 0 0 0 0 0 0 0 0 0 0 0 0 0 0 0 0 0 0 0 0 0 0 0 0 0 0 0 0 0 0 0
0 0 0 0 0 0 0 0 0 0 0 0 0 0 0 0 0 0 0 0 0 0 0 0 0 0 0 0 0 0 0 0 0 0 0 0 0 0 0 0 0 0 0
0 0 0 0 0 0 0 0 0 0 0 0 0 0 0 0 0 0 0 0 0 0 0 0 0 0 0 0 0 0 0 0 0 0 0 0 0 0 0 0 0 0 0
0 0 0 0 0 0 0 0 0 0 0 0 0 0 0 0 0 0 0 0 0 0 0 0 0 0 0 0 0 0 0 0 0 0 0 0 0 0 0 0 0 0 0
0 0 0 0 0 0 0 0 0 0 0 0 0 0 0 0 0 0 0 0 0 0 0 0 0 0 0 0 0 0 0 0 0 0 0 0 0 0 0 0 0 0 0
0 0 0 0 0 0 0 0 0 0 0 0 0 0 0 0 0 0 0 0 0 0 0 0 0 0 0 0 0 0 0 0 0 0 0 0 0 0 0 0 0 0 0
0 0 0 0 0 0 0 0 0 0 0 0 0 0 0 0 0 0 0 0 0 0 0 0 0 0 0 0 0 0 0 0 0 0 0 0 0 0 0 0 0 0 0
0 0 0 0 0 0 0 0 0 0 0 0 0 0 0 0 0 0 0 0 0 0 0 0 0 0 0 0 0 0 0 0 0 0 0 0 0 0 0 0 0 0 0
0 0 0 0 0 0 0 0 0 0 0 0 0 0 0 0 0 0 0 0 0 0 0 0 0 0 0 0 0 0 0 0 0 0 0 0 0 0 0 0 0 0 0
0 0 0 0 0 0 0 0 0 0 0 0 0 0 0 0 0 0 0 0 0 0 0 0 0 0 0 0 0 0 0 0 0 0 0 0 0 0 0 0 0 0 0
0 0 0 0 0 0 0 0 0 0 0 0 0 0 0 0 0 0 0 0 0 0 0 0 0 0 0 0 0 0 0 0 0 0 0 0 0 0 0 0 0 0 0
0 0 0 0 0 0 0 0 0 0 0 0 0 0 0 0 0 0 0 0 0 0 0 0 0 0 0 0 0 0 0 0 0 0 0 0 0 0 0 0 0 0 0
0 0 0 0 0 0 0 0 0 0 0 0 0 0 0 0 0 0 0 0 0 0 0 0 0 0 0 0 0 0 0 0 0 0 0 0 0 0 0 0 0 0 0
0 0 0 0 0 0 0 0 0 0 0 0 0 0 0 0 0 0 0 0 0 0 0 0 0 0 0 0 0 0 0 0 0 0 0 0 0 0 0 0 0 0 0
0 0 0 0 0 0 0 0 0 0 0 0 0 0 0 0 0 0 0 0 0 0 0 0 0 0 0 0 0 0 0 0 0 0 0 0 0 0 0 0 0 0 0
0 0 0 0 0 0 0 0 0 0 0 0 0 0 0 0 0 0 0 0 0 0 0 0 0 0 0 0 0 0 0 0 0 0 0 0 0 0 0 0 0 0 0
0 0 0 0 0 0 0 0 0 0 0 0 0 0 0 0 0 0 0 0 0 0 0 0 0 0 0 0 0 0 0 0 0 0 0 0 0 0 0 0 0 0 0
0 0 0 0 0 0 0 0 0 0 0 0 0 0 0 0 0 0 0 0 0 0 0 0 0 0 0 0 0 0 0 0 0 0 0 0 0 0 0 0 0 0 0
0 0 0 0 0 0 0 0 0 0 0 0 0 0 0 0 0 0 0 0 0 0 0 0 0 0 0 0 0 0 0 0 0 0 0 0 0 0 0 0 0 0 0
0 0 0 0 0 0 0 0 0 0 0 0 0 0 0 0 0 0 0 0 0 0 0 0 0 0 0 0 0 0 0 0 0 0 0 0 0 0 0 0 0 0 0
0 0 0 0 0 0 0 0 0 0 0 0 0 0 0 0 0 0 0 0 0 0 0 0 0 0 0 0 0 0 0 0 0 0 0 0 0 0 0 0 0 0 0
0 0 0 0 0 0 0 0 0 0 0 0 0 0 0 0 0 0 0 0 0 0 0 0 0 0 0 0 0 0 0 0 0 0 0 0 0 0 0 0 0 0 0
0 0 0 0 0 0 0 0 0 0 0 0 0 0 0 0 0 0 0 0 0 0 0 0 0 0 0 0 0 0 0 0 0 0 0 0 0 0 0 0 0 0 0
0 0 0 0 0 0 0 0 0 0 0 0 0 0 0 0 0 0 0 0 0 0 0 0 0 0 0 0 0 0 0 0 0 0 0 0 0 0 0 0 0 0 0
0 0 0 0 0 0 0 0 0 0 0 0 0 0 0 0 0 0 0 0 0 0 0 0 0 0 0 0 0 0 0 0 0 0 0 0 0 0 0 0 0 0 0
Wind_Speed
15 15 15 14 14 14 12 12 11 10 9 9 9 9 9 8 7 7 7 7 6 6 5 6 5 5 4 4 4 4 4 3 3 4 3 4 4 4 5 4 5 6 7
14 14 14 13 13 12 11 10 9 9 8 8 8 8 8 7 6 6 6 6 5 5 5 5 5 5 5 4 4 4 3 3 3 5 4 5 5 5 5 5 6 7 5
13 13 12 12 11 11 10 9 9 8 8 7 6 6 6 5 5 5 4 4 4 4 4 4 4 4 5 5 5 5 4 5 4 4 5 5 4 5 4 5 6 5 7
12 12 12 11 10 10 9 8 7 7 6 5 5 5 6 7 8 8 7 4 4 4 3 4 3 3 4 5 5 5 5 6 5 5 5 5 4 4 4 4 5 4 6
11 11 10 9 9 8 7 6 5 5 6 4 4 5 6 7 8 9 8 7 6 5 4 4 4 2 1 3 4 4 5 5 6 6 6 6 5 5 5 4 6 5 6
10 10 9 8 8 7 6 5 4 4 4 4 5 6 7 7 8 9 8 7 6 5 4 5 5 1 1 4 8 9 9 7 7 6 7 7 7 6 5 6 5 6 5
8 8 8 7 7 6 6 5 5 4 4 4 4 6 7 6 6 8 10 7 6 4 4 4 5 5 5 6 8 10 9 10 11 8 8 9 8 7 6 7 6 7 7
7 7 7 7 7 6 5 5 4 3 2 3 4 5 6 5 4 7 12 7 5 4 4 3 3 3 5 6 8 8 8 7 8 6 6 7 8 6 5 6 7 8 7
7 6 6 6 6 5 5 4 3 2 2 2 3 4 4 4 2 6 9 7 4 4 4 4 4 3 4 6 7 8 8 7 8 9 10 11 13 14 10 5 6 6 7
7 6 6 6 5 4 4 3 1 1 2 2 3 3 3 4 2 4 7 6 5 6 4 2 2 3 5 6 6 7 8 8 9 11 9 10 9 10 10 7 6 5 6
6 6 5 4 3 3 2 1 1 1 1 1 1 2 3 4 3 2 4 4 6 6 6 4 2 4 9 10 8 7 9 9 9 9 8 7 6 5 4 3 4 4 5
5 5 4 2 2 3 1 0 1 1 1 0 1 1 3 4 2 1 4 5 5 6 6 5 6 11 13 14 10 9 12 10 7 6 6 5 5 4 4 3 3 3 4
4 3 2 2 2 1 1 1 1 2 2 2 2 2 2 2 2 2 5 8 8 5 5 10 13 15 13 10 9 11 9 6 5 5 5 5 4 4 4 3 3 3 3
3 2 2 1 1 1 2 3 4 5 5 5 4 4 3 4 5 6 6 6 7 6 7 11 13 12 8 8 9 7 4 4 4 4 4 4 4 4 3 2 2 3 2
1 1 1 1 1 2 4 5 5 5 4 4 5 5 5 5 4 5 5 6 7 7 8 7 5 4 4 4 4 4 3 4 4 4 3 4 4 4 4 3 2 2 3
1 1 1 1 1 2 5 5 7 6 5 5 3 3 2 3 6 9 9 11 12 10 6 5 4 4 5 5 5 5 4 4 4 4 4 4 4 4 4 3 3 3 3
1 1 2 0 1 1 2 4 5 3 1 1 2 3 4 7 9 11 11 13 14 9 4 4 4 4 5 5 5 5 5 5 5 5 4 4 4 4 4 3 3 3 3
2 1 2 1 0 0 0 0 2 3 4 3 4 7 8 9 10 12 11 11 5 3 3 4 4 4 5 5 5 5 5 5 5 5 5 5 4 4 4 4 3 3 3
1 0 1 1 0 1 1 1 2 3 2 2 3 3 6 9 11 12 9 4 4 4 5 5 4 4 5 5 5 5 5 5 6 6 6 6 5 4 4 4 3 3 2
2 1 2 2 1 2 1 1 2 2 2 1 1 2 1 2 3 3 1 3 4 4 5 6 5 5 5 6 6 6 6 6 7 7 7 7 6 5 5 5 4 3 3
3 5 4 3 0 2 2 2 2 2 2 1 3 4 3 4 3 4 4 4 4 5 5 5 6 6 6 6 7 8 8 8 8 8 9 8 7 5 4 4 4 4 4
2 3 4 2 3 4 2 2 2 2 2 2 2 2 1 3 3 3 4 4 4 4 4 5 6 6 7 8 8 8 8 9 9 9 10 10 8 6 5 5 4 3 4
3 1 3 4 4 4 1 2 2 2 2 2 2 2 2 2 3 3 4 4 3 4 4 4 5 7 7 7 7 7 8 8 8 9 10 10 9 6 5 5 5 5 5
2 1 3 4 3 3 3 3 2 2 2 2 2 2 2 2 2 4 4 3 3 3 3 4 6 9 11 8 7 8 8 8 9 8 12 11 9 6 6 6 5 6 5
1 3 4 4 3 3 3 3 3 2 2 2 2 2 2 2 3 4 4 3 3 4 5 5 5 8 11 12 11 11 11 11 9 8 10 9 7 6 8 8 6 5 5
2 4 4 4 4 3 3 3 3 2 2 1 2 2 2 3 4 4 4 3 4 4 4 5 8 11 12 10 12 12 12 13 14 13 10 7 7 6 7 7 9 7 6
Wind_Direction
74 76 78 79 79 80 80 81 82 80 78 78 77 75 70 61 54 52 52 48 46 40 30 31 22 19 11 350 353 353 354 358 332 316 325 331 326 307 296 283 282 274 272
80 82 81 82 83 82 82 82 81 80 78 77 75 74 73 70 63 58 52 46 40 38 30 24 16 15 5 357 352 341 337 323 319 318 313 305 302 296 287 287 294 298 298
88 87 86 84 84 84 83 83 82 82 81 80 80 77 73 67 56 45 46 43 34 30 26 12 7 17 9 2 338 341 337 339 326 311 306 302 298 300 308 306 305 303 303
91 89 88 86 87 87 87 87 88 91 90 86 82 76 67 55 40 24 15 24 21 16 12 355 359 22 14 351 333 345 342 332 318 310 302 303 303 314 323 316 311 306 303
95 94 93 93 93 92 92 93 93 90 89 86 80 72 67 62 36 21 358 6 2 360 358 350 345 4 358 296 322 331 323 319 315 311 312 312 318 330 328 318 312 309 301
100 101 102 103 102 101 99 95 90 80 71 67 63 65 60 55 36 19 2 344 335 342 351 346 328 37 317 274 281 286 282 287 298 304 304 309 313 318 319 314 314 315 311
106 108 110 109 105 105 103 95 83 76 72 66 65 79 85 67 29 4 353 325 312 324 334 332 338 1 13 357 336 319 301 285 266 265 282 290 297 305 313 312 312 309 299
109 111 113 112 107 105 98 91 83 71 63 70 65 79 98 83 25 357 341 317 307 323 326 334 342 10 28 356 329 321 316 313 300 275 266 276 285 291 293 291 291 294 290
112 112 111 108 102 96 89 84 69 52 45 72 70 74 98 110 24 356 347 319 332 342 340 1 360 26 24 345 325 321 320 320 325 321 291 279 279 279 272 281 287 296 304
106 102 99 96 95 87 76 71 55 21 38 55 67 72 87 109 109 351 346 335 352 345 342 3 60 2 337 329 321 316 314 320 324 318 309 296 283 277 266 240 255 280 294
108 105 104 110 119 104 87 56 351 16 51 51 63 99 105 107 152 282 333 341 350 337 337 338 3 338 325 318 308 286 290 305 306 301 302 302 301 293 280 248 236 247 275
112 108 106 97 73 88 91 34 359 334 313 115 69 87 122 133 109 190 294 303 303 313 324 334 334 323 317 310 301 287 298 304 292 299 309 313 315 316 313 304 279 263 257
114 106 101 83 65 43 334 343 11 3 8 26 34 38 61 78 101 350 318 308 301 293 315 322 315 307 305 302 301 304 303 293 296 309 316 314 312 316 318 316 313 303 297
130 144 161 150 137 78 17 31 42 24 16 12 26 27 38 55 34 8 348 341 346 348 344 323 313 305 297 292 300 305 295 297 307 313 317 314 318 326 326 325 331 333 336
155 184 218 167 136 102 78 48 50 63 48 21 16 11 18 22 11 337 326 327 332 331 324 307 308 328 337 336 333 329 326 335 331 325 332 335 339 343 336 338 357 353 355
226 242 251 166 156 157 140 117 61 95 111 84 54 15 27 18 328 323 321 314 308 309 313 309 329 347 347 344 345 348 348 349 341 340 349 349 345 348 350 349 3 6 3
261 293 300 297 140 149 137 151 154 142 161 271 293 304 307 312 311 310 316 318 307 304 301 323 348 348 345 347 354 354 347 346 344 343 348 351 348 349 351 350 2 6 9
243 219 277 313 2 75 98 98 132 150 166 181 222 251 270 284 292 298 313 322 322 352 355 351 348 346 348 350 354 353 345 345 350 346 347 345 342 342 344 342 356 9 1
252 16 283 305 188 93 70 63 73 76 78 110 158 202 247 268 272 278 292 301 347 14 4 350 347 350 353 353 356 351 347 351 355 352 346 340 338 339 339 345 355 9 357
157 106 306 292 184 123 106 75 74 80 77 60 70 56 10 310 322 326 336 5 12 14 6 351 344 354 360 359 358 354 356 360 0 355 343 336 334 337 342 349 357 360 354
185 166 211 251 156 90 75 76 74 73 79 59 72 65 356 330 347 -0 18 22 18 10 7 349 344 1 9 3 359 358 5 5 360 351 341 334 332 338 342 349 354 4 360
279 172 175 144 102 82 68 84 89 83 79 72 91 137 252 298 355 12 26 26 18 11 7 354 355 10 15 7 360 6 8 2 352 344 336 331 332 339 348 350 352 359 12
270 154 127 114 105 117 155 90 88 82 75 64 46 39 29 8 11 24 31 27 19 15 8 360 11 18 18 13 6 19 11 352 335 325 325 325 326 334 344 345 355 4 10
274 119 114 114 112 120 111 99 89 82 73 59 49 32 20 10 25 42 36 25 26 19 15 16 34 26 21 22 9 13 9 343 326 319 320 316 322 341 343 341 352 5 3
234 112 113 111 112 114 111 105 95 87 81 72 50 27 11 18 42 52 44 13 30 34 23 29 46 35 18 20 14 3 346 336 332 328 320 318 329 352 345 344 351 2 6
125 116 122 120 119 121 122 121 114 107 91 78 55 26 17 38 53 46 43 17 19 45 35 29 54 51 25 13 6 358 346 341 338 333 324 321 343 359 351 350 353 360 8